MAS127 WMKK-YPPH

Flight info

Callsign MAS127
Flight time N/A
Altitude 33000
Route MITOS1D MITOS M630 BOBAG P501 ANITO B470 PKP L764 IKIBU/N0471F350 L764 LAMOB B469 TOPIR/N0457F360 L514 AVPAL Q38 JULIM
Aircraft B38M/M-SDE1FGHILORVWXY/HB1

Departure

Time 2026-05-04 04:51
Airport Kuala Lumpur International Airport (WMKK)

Arrival

Time N/A
Airport Perth International Airport (YPPH)
Time Latitude Longitude Altitude Speed Heading
2026-05-04 04:36 2.75423 101.70896 64 ft 0 kts 327°
2026-05-04 04:39 2.75403 101.70909 69 ft 4 kts 327°
2026-05-04 04:39 2.75384 101.70921 65 ft 4 kts 337°
2026-05-04 04:39 2.75360 101.70924 70 ft 4 kts 21°
2026-05-04 04:40 2.75341 101.70909 62 ft 3 kts 57°
2026-05-04 04:40 2.75348 101.70919 67 ft 4 kts 54°
2026-05-04 04:40 2.75361 101.70938 70 ft 1 kts 57°
2026-05-04 04:43 2.75362 101.70939 65 ft 1 kts 57°
2026-05-04 04:44 2.75375 101.70959 66 ft 7 kts 58°
2026-05-04 04:44 2.75411 101.71014 70 ft 11 kts 57°
2026-05-04 04:44 2.75453 101.71079 70 ft 12 kts 56°
2026-05-04 04:44 2.75484 101.71125 70 ft 12 kts 56°
2026-05-04 04:45 2.75532 101.71197 70 ft 13 kts 56°
2026-05-04 04:45 2.75583 101.71272 67 ft 14 kts 55°
2026-05-04 04:45 2.75637 101.71348 67 ft 12 kts 54°
2026-05-04 04:47 2.75343 101.71638 67 ft 13 kts 146°
2026-05-04 04:47 2.75270 101.71687 76 ft 13 kts 146°
2026-05-04 04:47 2.75195 101.71736 71 ft 13 kts 147°
2026-05-04 04:47 2.75118 101.71788 76 ft 14 kts 146°
2026-05-04 04:48 2.75037 101.71842 77 ft 14 kts 146°
2026-05-04 04:49 2.74707 101.72064 80 ft 15 kts 146°
2026-05-04 04:49 2.74683 101.72138 81 ft 11 kts 61°
2026-05-04 04:49 2.74723 101.72200 81 ft 11 kts 55°
2026-05-04 04:49 2.74787 101.72235 82 ft 11 kts 347°
2026-05-04 04:50 2.74859 101.72193 83 ft 14 kts 326°
2026-05-04 04:50 2.75035 101.72074 83 ft 60 kts 326°
2026-05-04 04:50 2.75573 101.71714 73 ft 124 kts 326°
2026-05-04 04:50 2.76444 101.71128 68 ft 175 kts 326°
2026-05-04 04:51 2.77502 101.70411 463 ft 189 kts 326°
2026-05-04 04:51 2.78636 101.69651 1081 ft 198 kts 326°
2026-05-04 04:51 2.79780 101.68908 1824 ft 202 kts 330°
2026-05-04 04:51 2.81157 101.68305 2161 ft 228 kts 340°
2026-05-04 04:52 2.82698 101.67777 2839 ft 238 kts 342°
2026-05-04 04:52 2.83678 101.67461 3379 ft 240 kts 342°
2026-05-04 04:52 2.84245 101.67273 3706 ft 237 kts 341°
2026-05-04 04:52 2.85833 101.66745 4451 ft 248 kts 341°
2026-05-04 04:53 2.87527 101.66173 5003 ft 264 kts 341°
2026-05-04 04:53 2.89369 101.65881 5654 ft 274 kts
2026-05-04 04:53 2.91190 101.66457 6432 ft 279 kts 32°
2026-05-04 04:53 2.92588 101.67772 7214 ft 280 kts 57°
2026-05-04 04:54 2.93481 101.69533 7913 ft 287 kts 65°
2026-05-04 04:54 2.94314 101.71335 8630 ft 292 kts 69°
2026-05-04 04:54 2.94660 101.73325 9384 ft 294 kts 94°
2026-05-04 04:54 2.94127 101.75297 10076 ft 297 kts 119°
2026-05-04 04:55 2.92828 101.76944 10523 ft 311 kts 137°
2026-05-04 04:55 2.91207 101.78476 10789 ft 330 kts 136°
2026-05-04 04:55 2.89497 101.80106 11068 ft 348 kts 136°
2026-05-04 04:55 2.87707 101.81799 11431 ft 360 kts 136°
2026-05-04 04:56 2.85928 101.83475 11855 ft 369 kts 136°
2026-05-04 04:56 2.84020 101.85271 12416 ft 374 kts 136°
2026-05-04 04:56 2.82118 101.87059 13012 ft 377 kts 136°
2026-05-04 04:56 2.80200 101.88862 13602 ft 380 kts 136°
2026-05-04 04:57 2.78265 101.90682 14195 ft 383 kts 136°
2026-05-04 04:57 2.76343 101.92488 14731 ft 386 kts 136°
2026-05-04 04:57 2.74383 101.94331 15259 ft 388 kts 136°
2026-05-04 04:57 2.72416 101.96180 15759 ft 390 kts 136°
2026-05-04 04:58 2.70427 101.98049 16215 ft 393 kts 136°
2026-05-04 04:58 2.68429 101.99927 16693 ft 395 kts 136°
2026-05-04 04:58 2.66419 102.01815 17124 ft 399 kts 136°
2026-05-04 04:58 2.64391 102.03722 17599 ft 401 kts 136°
2026-05-04 04:59 2.62354 102.05635 18053 ft 403 kts 136°
2026-05-04 04:59 2.60204 102.07436 18436 ft 405 kts 147°
2026-05-04 04:59 2.57635 102.08610 18831 ft 409 kts 163°
2026-05-04 04:59 2.54820 102.09046 19196 ft 412 kts 176°
2026-05-04 05:00 2.51940 102.09179 19524 ft 417 kts 177°
2026-05-04 05:00 2.49039 102.09276 19902 ft 417 kts 177°
2026-05-04 05:00 2.43233 102.09417 20581 ft 422 kts 178°
2026-05-04 05:01 2.40251 102.09477 20906 ft 424 kts 178°
2026-05-04 05:01 2.37332 102.09532 21213 ft 426 kts 178°
2026-05-04 05:01 2.34363 102.09588 21535 ft 426 kts 178°
2026-05-04 05:01 2.31380 102.09644 21778 ft 429 kts 178°
2026-05-04 05:02 2.28386 102.09701 22074 ft 431 kts 178°
2026-05-04 05:02 2.25387 102.09757 22351 ft 433 kts 178°
2026-05-04 05:02 2.22367 102.09813 22631 ft 435 kts 178°
2026-05-04 05:02 2.19335 102.09870 22922 ft 436 kts 178°
2026-05-04 05:03 2.16290 102.09927 23183 ft 438 kts 178°
2026-05-04 05:03 2.13243 102.09984 23434 ft 440 kts 178°
2026-05-04 05:04 2.04025 102.10161 24106 ft 444 kts 177°
2026-05-04 05:04 2.00989 102.10639 24344 ft 443 kts 162°
2026-05-04 05:04 1.98171 102.11881 24540 ft 445 kts 148°
2026-05-04 05:06 1.84898 102.29123 25881 ft 455 kts 124°
2026-05-04 05:06 1.83132 102.31761 26079 ft 457 kts 124°
2026-05-04 05:06 1.81367 102.34399 26260 ft 458 kts 123°
2026-05-04 05:07 1.79611 102.37022 26452 ft 461 kts 123°
2026-05-04 05:07 1.77828 102.39688 26677 ft 461 kts 123°
2026-05-04 05:07 1.76042 102.42357 26861 ft 463 kts 123°
2026-05-04 05:09 1.61556 102.64003 28300 ft 473 kts 123°
2026-05-04 05:09 1.59722 102.66742 28460 ft 475 kts 123°
2026-05-04 05:10 1.57884 102.69489 28643 ft 476 kts 123°
2026-05-04 05:10 1.56042 102.72239 28800 ft 478 kts 123°
2026-05-04 05:10 1.54196 102.74997 29000 ft 478 kts 123°
2026-05-04 05:10 1.52345 102.77762 29129 ft 480 kts 123°
2026-05-04 05:11 1.50485 102.80541 29267 ft 481 kts 123°
2026-05-04 05:11 1.48645 102.83289 29442 ft 482 kts 123°
2026-05-04 05:11 1.46782 102.86072 29600 ft 483 kts 123°
2026-05-04 05:11 1.44915 102.88859 29813 ft 482 kts 123°
2026-05-04 05:12 1.43076 102.91606 30040 ft 482 kts 123°
2026-05-04 05:12 1.41189 102.94424 30270 ft 481 kts 123°
2026-05-04 05:12 1.39328 102.97203 30504 ft 481 kts 123°
2026-05-04 05:12 1.37474 102.99979 30735 ft 480 kts 123°
2026-05-04 05:13 1.35620 103.02755 30955 ft 480 kts 123°
2026-05-04 05:13 1.33771 103.05524 31187 ft 479 kts 123°
2026-05-04 05:13 1.31925 103.08288 31416 ft 479 kts 123°
2026-05-04 05:13 1.30075 103.11057 31658 ft 478 kts 123°
2026-05-04 05:14 1.28234 103.13812 31890 ft 477 kts 123°
2026-05-04 05:14 1.26392 103.16570 32130 ft 477 kts 123°
2026-05-04 05:14 1.24577 103.19287 32343 ft 476 kts 123°
2026-05-04 05:14 1.22739 103.22038 32569 ft 476 kts 123°
2026-05-04 05:15 1.20899 103.24791 32813 ft 476 kts 123°
2026-05-04 05:15 1.19061 103.27543 32934 ft 476 kts 123°
2026-05-04 05:15 1.15395 103.33030 32914 ft 474 kts 123°
2026-05-04 05:16 1.11736 103.38506 32914 ft 474 kts 123°
2026-05-04 05:16 1.08072 103.43988 32921 ft 474 kts 123°
2026-05-04 05:17 1.04392 103.49456 32913 ft 474 kts 127°
2026-05-04 05:17 0.99890 103.54235 32908 ft 474 kts 133°
2026-05-04 05:18 0.95312 103.58982 32936 ft 475 kts 134°
2026-05-04 05:18 0.90725 103.63721 32934 ft 474 kts 134°
2026-05-04 05:19 0.86141 103.68458 32934 ft 474 kts 134°
2026-05-04 05:19 0.81624 103.73124 32928 ft 473 kts 134°
2026-05-04 05:20 0.77048 103.77852 32932 ft 474 kts 134°
2026-05-04 05:20 0.72492 103.82558 32933 ft 474 kts 134°
2026-05-04 05:21 0.67911 103.87291 32935 ft 474 kts 134°
2026-05-04 05:21 0.64850 103.90452 32929 ft 474 kts 134°
2026-05-04 05:22 0.59491 103.95988 32929 ft 474 kts 134°
2026-05-04 05:22 0.54161 104.01492 32928 ft 474 kts 134°
2026-05-04 05:23 0.49581 104.06220 32925 ft 473 kts 134°
2026-05-04 05:23 0.45009 104.10940 32924 ft 473 kts 134°
2026-05-04 05:24 0.40432 104.15666 32929 ft 473 kts 134°
2026-05-04 05:24 0.35859 104.20386 32933 ft 472 kts 134°
2026-05-04 05:25 0.31283 104.25112 32935 ft 473 kts 134°
2026-05-04 05:25 0.26711 104.29832 32933 ft 473 kts 134°
2026-05-04 05:26 0.22131 104.34561 32936 ft 473 kts 134°
2026-05-04 05:26 0.17584 104.39257 32933 ft 473 kts 134°
2026-05-04 05:28 -0.00720 104.58155 32931 ft 472 kts 134°
2026-05-04 05:29 -0.05283 104.62867 32932 ft 472 kts 134°
2026-05-04 05:29 -0.09851 104.67584 32932 ft 471 kts 134°
2026-05-04 05:31 -0.28159 104.86412 32924 ft 472 kts 140°
2026-05-04 05:32 -0.33499 104.90134 32919 ft 473 kts 145°
2026-05-04 05:33 -0.41638 104.95669 32924 ft 472 kts 145°
2026-05-04 05:33 -0.47075 104.99348 32924 ft 472 kts 145°
2026-05-04 05:34 -0.52506 105.03022 32925 ft 471 kts 145°
2026-05-04 05:34 -0.57937 105.06697 32925 ft 471 kts 145°
2026-05-04 05:35 -0.62447 105.09748 32925 ft 472 kts 145°
2026-05-04 05:35 -0.67880 105.13424 32920 ft 471 kts 145°
2026-05-04 05:36 -0.73308 105.17098 32926 ft 471 kts 145°
2026-05-04 05:36 -0.78735 105.20771 32928 ft 472 kts 145°
2026-05-04 05:37 -0.84160 105.24442 32922 ft 470 kts 145°
2026-05-04 05:37 -0.89586 105.28114 32926 ft 472 kts 145°
2026-05-04 05:38 -0.97726 105.33623 32921 ft 470 kts 145°
2026-05-04 05:38 -1.03148 105.37293 32928 ft 471 kts 145°
2026-05-04 05:39 -1.11286 105.42801 32920 ft 471 kts 145°
2026-05-04 05:40 -1.19427 105.48311 32916 ft 471 kts 145°
2026-05-04 05:40 -1.24841 105.51977 32916 ft 471 kts 145°
2026-05-04 05:41 -1.30269 105.55651 32914 ft 471 kts 145°
2026-05-04 05:41 -1.35695 105.59325 32911 ft 471 kts 145°
2026-05-04 05:42 -1.41090 105.62978 32904 ft 472 kts 145°
2026-05-04 05:42 -1.46518 105.66653 32901 ft 471 kts 145°
2026-05-04 05:43 -1.51940 105.70324 32900 ft 470 kts 145°
2026-05-04 05:45 -1.73629 105.85013 32890 ft 471 kts 145°
2026-05-04 05:47 -1.95292 105.99689 32899 ft 472 kts 145°
2026-05-04 05:47 -2.00723 106.03368 32892 ft 471 kts 145°
2026-05-04 05:48 -2.06150 106.07045 32901 ft 471 kts 145°
2026-05-04 05:48 -2.11574 106.10721 32892 ft 471 kts 145°
2026-05-04 05:49 -2.17119 106.14177 32867 ft 471 kts 158°
2026-05-04 05:49 -2.23411 106.16012 32880 ft 473 kts 163°
2026-05-04 05:51 -2.48752 106.22928 32895 ft 473 kts 164°
2026-05-04 05:52 -2.55088 106.24653 32899 ft 473 kts 164°
2026-05-04 05:52 -2.61442 106.26384 32894 ft 473 kts 164°
2026-05-04 05:54 -2.86854 106.33306 32901 ft 474 kts 164°
2026-05-04 05:55 -2.93210 106.35038 32894 ft 473 kts 164°
2026-05-04 05:55 -2.99569 106.36770 32883 ft 474 kts 164°
2026-05-04 05:56 -3.05922 106.38502 32888 ft 474 kts 164°
2026-05-04 05:56 -3.12285 106.40236 32883 ft 473 kts 164°
2026-05-04 05:57 -3.18646 106.41970 32886 ft 474 kts 164°
2026-05-04 05:57 -3.25010 106.43706 32894 ft 475 kts 164°
2026-05-04 05:58 -3.31372 106.45440 32885 ft 474 kts 164°
2026-05-04 05:58 -3.37738 106.47176 32885 ft 474 kts 164°
2026-05-04 05:59 -3.44105 106.48912 32885 ft 474 kts 164°
2026-05-04 05:59 -3.50464 106.50647 32892 ft 474 kts 164°
2026-05-04 06:00 -3.56832 106.52385 32888 ft 474 kts 163°
2026-05-04 06:00 -3.63198 106.54121 32898 ft 475 kts 163°
2026-05-04 06:01 -3.69564 106.55859 32888 ft 473 kts 164°
2026-05-04 06:03 -3.95011 106.62806 32886 ft 474 kts 163°
2026-05-04 06:05 -4.23663 106.70633 32889 ft 475 kts 164°
2026-05-04 06:06 -4.30045 106.72378 32886 ft 475 kts 164°
2026-05-04 06:06 -4.35351 106.73828 32886 ft 476 kts 164°
2026-05-04 06:07 -4.42821 106.75870 32887 ft 476 kts 164°
2026-05-04 06:07 -4.49206 106.77617 32885 ft 476 kts 164°
2026-05-04 06:08 -4.55590 106.79363 32884 ft 476 kts 164°
2026-05-04 06:08 -4.61983 106.81112 32888 ft 477 kts 164°
2026-05-04 06:09 -4.68345 106.82852 32889 ft 476 kts 164°
2026-05-04 06:11 -4.93948 106.89817 32886 ft 477 kts 164°
2026-05-04 06:13 -5.19618 106.96800 32878 ft 479 kts 164°
2026-05-04 06:14 -5.42137 107.02930 32878 ft 479 kts 164°
2026-05-04 06:15 -5.48573 107.04683 32875 ft 483 kts 164°
2026-05-04 06:15 -5.55052 107.06452 32880 ft 485 kts 163°
2026-05-04 06:16 -5.61530 107.08217 32852 ft 482 kts 164°
2026-05-04 06:16 -5.67960 107.09961 32860 ft 478 kts 164°
2026-05-04 06:17 -5.74405 107.11723 32874 ft 483 kts 164°
2026-05-04 06:17 -5.80840 107.13484 32837 ft 475 kts 164°
2026-05-04 06:18 -5.86173 107.14932 32895 ft 480 kts 164°
2026-05-04 06:20 -6.11989 107.21977 32885 ft 481 kts 164°
2026-05-04 06:21 -6.28153 107.26397 32879 ft 483 kts 164°
2026-05-04 06:22 -6.34659 107.28170 32909 ft 485 kts 164°
2026-05-04 06:25 -6.79852 107.40530 32886 ft 481 kts 164°
2026-05-04 06:26 -6.86314 107.42300 32892 ft 481 kts 164°
2026-05-04 06:26 -6.92772 107.44068 32888 ft 481 kts 164°
2026-05-04 06:27 -7.08957 107.48504 32879 ft 482 kts 164°
2026-05-04 06:28 -7.15428 107.50278 32878 ft 482 kts 164°
2026-05-04 06:28 -7.21892 107.52051 32877 ft 482 kts 164°
2026-05-04 06:29 -7.28366 107.53827 32878 ft 482 kts 164°
2026-05-04 06:29 -7.34836 107.55602 32878 ft 482 kts 164°
2026-05-04 06:30 -7.41291 107.57374 32882 ft 482 kts 164°
2026-05-04 06:30 -7.47718 107.59139 32879 ft 482 kts 164°
2026-05-04 06:31 -7.54193 107.60918 32880 ft 482 kts 164°
2026-05-04 06:31 -7.60662 107.62695 32878 ft 482 kts 165°
2026-05-04 06:33 -7.86573 107.69820 32878 ft 482 kts 165°
2026-05-04 06:34 -7.93050 107.71602 32878 ft 482 kts 165°
2026-05-04 06:34 -7.99529 107.73386 32882 ft 483 kts 165°
2026-05-04 06:36 -8.25429 107.80521 32885 ft 483 kts 165°
2026-05-04 06:37 -8.31911 107.82308 32893 ft 483 kts 165°
2026-05-04 06:37 -8.38376 107.84149 32888 ft 482 kts 164°
2026-05-04 06:38 -8.44837 107.85991 32887 ft 482 kts 164°
2026-05-04 06:40 -8.70620 107.93345 32901 ft 482 kts 164°
2026-05-04 06:40 -8.77084 107.95190 32888 ft 481 kts 164°
2026-05-04 06:41 -8.83528 107.97030 32899 ft 482 kts 164°
2026-05-04 06:41 -8.89978 107.98872 32877 ft 482 kts 164°
2026-05-04 06:42 -8.96435 108.00718 32876 ft 482 kts 164°
2026-05-04 06:44 -9.22209 108.08090 32885 ft 482 kts 164°
2026-05-04 06:44 -9.28652 108.09935 32885 ft 481 kts 164°
2026-05-04 06:45 -9.35087 108.11778 32890 ft 481 kts 164°
2026-05-04 06:45 -9.41535 108.13626 32889 ft 482 kts 164°
2026-05-04 06:46 -9.47991 108.15476 32883 ft 481 kts 164°
2026-05-04 06:46 -9.54434 108.17324 32885 ft 482 kts 164°
2026-05-04 06:48 -9.80242 108.24732 32887 ft 482 kts 164°
2026-05-04 06:50 -10.05976 108.32131 32911 ft 482 kts 164°
2026-05-04 06:51 -10.12427 108.33987 32885 ft 482 kts 164°
2026-05-04 06:51 -10.18871 108.35843 32898 ft 481 kts 164°
2026-05-04 06:52 -10.25308 108.37696 32894 ft 481 kts 164°
2026-05-04 06:52 -10.31752 108.39554 32904 ft 481 kts 164°
2026-05-04 06:53 -10.38164 108.41402 32896 ft 481 kts 164°
2026-05-04 06:53 -10.44604 108.43260 32899 ft 481 kts 164°
2026-05-04 06:54 -10.51034 108.45115 32905 ft 481 kts 164°
2026-05-04 06:54 -10.57462 108.46970 32907 ft 480 kts 164°
2026-05-04 06:55 -10.63896 108.48829 32905 ft 481 kts 164°
2026-05-04 06:55 -10.70332 108.50688 32902 ft 480 kts 165°
2026-05-04 06:57 -10.96020 108.58118 32907 ft 479 kts 165°
2026-05-04 06:58 -11.02432 108.59974 32913 ft 479 kts 165°
2026-05-04 06:58 -11.08847 108.61834 32905 ft 479 kts 165°
2026-05-04 06:59 -11.15252 108.63689 32904 ft 476 kts 165°
2026-05-04 06:59 -11.21605 108.65530 32932 ft 478 kts 165°
2026-05-04 07:01 -11.43942 108.72017 34777 ft 475 kts 165°
2026-05-04 07:01 -11.47111 108.72936 34927 ft 475 kts 165°
2026-05-04 07:02 -11.53449 108.74778 34902 ft 473 kts 165°
2026-05-04 07:02 -11.59781 108.76619 34907 ft 473 kts 165°
2026-05-04 07:03 -11.66113 108.78461 34915 ft 473 kts 165°
2026-05-04 07:03 -11.72445 108.80303 34916 ft 473 kts 165°
2026-05-04 07:04 -11.77744 108.81846 34914 ft 472 kts 165°
2026-05-04 07:04 -11.84030 108.83677 34916 ft 472 kts 165°
2026-05-04 07:05 -11.90357 108.85521 34916 ft 473 kts 165°
2026-05-04 07:05 -11.96684 108.87365 34919 ft 473 kts 165°
2026-05-04 07:06 -12.06056 108.90516 34915 ft 473 kts 162°
2026-05-04 07:07 -12.12288 108.92675 34945 ft 473 kts 162°
2026-05-04 07:09 -12.37211 109.01316 34920 ft 474 kts 162°
2026-05-04 07:09 -12.43442 109.03479 34914 ft 473 kts 162°
2026-05-04 07:10 -12.49677 109.05644 34916 ft 473 kts 162°
2026-05-04 07:12 -12.74584 109.14306 34890 ft 473 kts 162°
2026-05-04 07:12 -12.80811 109.16475 34887 ft 473 kts 162°
2026-05-04 07:13 -12.87057 109.18650 34898 ft 473 kts 162°
2026-05-04 07:13 -12.93288 109.20822 34900 ft 473 kts 162°
2026-05-04 07:14 -13.08882 109.26262 34900 ft 474 kts 162°
2026-05-04 07:15 -13.15120 109.28441 34895 ft 473 kts 162°
2026-05-04 07:15 -13.21363 109.30621 34899 ft 474 kts 162°
2026-05-04 07:16 -13.27607 109.32805 34894 ft 473 kts 162°
2026-05-04 07:16 -13.33800 109.34971 34898 ft 473 kts 162°
2026-05-04 07:17 -13.40043 109.37156 34897 ft 475 kts 162°
2026-05-04 07:17 -13.46284 109.39341 34898 ft 474 kts 162°
2026-05-04 07:18 -13.52529 109.41529 34895 ft 474 kts 162°
2026-05-04 07:18 -13.58764 109.43715 34896 ft 474 kts 162°
2026-05-04 07:19 -13.65007 109.45905 34900 ft 473 kts 162°
2026-05-04 07:19 -13.71242 109.48092 34898 ft 474 kts 162°
2026-05-04 07:20 -13.77487 109.50285 34897 ft 474 kts 162°
2026-05-04 07:20 -13.83737 109.52482 34903 ft 474 kts 162°
2026-05-04 07:22 -14.08674 109.61255 34905 ft 474 kts 163°
2026-05-04 07:23 -14.14915 109.63454 34907 ft 474 kts 163°
2026-05-04 07:23 -14.21159 109.65655 34907 ft 475 kts 163°
2026-05-04 07:24 -14.27412 109.67861 34904 ft 474 kts 163°
2026-05-04 07:24 -14.33642 109.70060 34907 ft 473 kts 163°
2026-05-04 07:26 -14.58554 109.78866 34915 ft 474 kts 163°
2026-05-04 07:27 -14.64795 109.81075 34916 ft 474 kts 163°
2026-05-04 07:27 -14.71031 109.83284 34916 ft 473 kts 163°
2026-05-04 07:28 -14.77270 109.85496 34919 ft 474 kts 163°
2026-05-04 07:28 -14.83500 109.87705 34916 ft 473 kts 163°
2026-05-04 07:29 -14.89689 109.89901 34918 ft 474 kts 163°
2026-05-04 07:29 -14.95917 109.92113 34914 ft 473 kts 163°
2026-05-04 07:30 -15.02130 109.94321 34914 ft 472 kts 163°
2026-05-04 07:30 -15.08348 109.96531 34917 ft 473 kts 163°
2026-05-04 07:31 -15.14560 109.98741 34924 ft 472 kts 163°
2026-05-04 07:33 -15.39359 110.07577 34931 ft 471 kts 163°
2026-05-04 07:33 -15.45564 110.09791 34943 ft 471 kts 163°
2026-05-04 07:34 -15.51705 110.11984 34943 ft 470 kts 163°
2026-05-04 07:34 -15.57894 110.14196 34951 ft 471 kts 163°
2026-05-04 07:35 -15.64086 110.16409 34952 ft 471 kts 163°
2026-05-04 07:35 -15.70282 110.18626 34954 ft 471 kts 163°
2026-05-04 07:36 -15.76465 110.20840 34950 ft 470 kts 163°
2026-05-04 07:38 -15.97082 110.28231 34950 ft 471 kts 163°